Wetbulb
68.94 70.35 71.01 71.56 71.80 71.78 71.84 71.83 72.00 72.13 72.56 72.84 72.68 72.48 72.38 72.33 72.26 72.24 71.84 71.80 71.56 71.43 71.21 71.49 71.36 70.75 70.33 69.70 69.40 69.00 68.85 68.84 68.95 68.91 68.77 69.39 70.03 69.77 70.92 70.94 71.35 70.06 71.69
69.65 69.90 70.63 71.25 71.58 71.84 72.18 72.25 72.31 72.30 72.77 72.78 72.50 72.06 71.55 71.51 71.57 71.35 71.55 71.59 71.61 71.38 71.24 71.10 71.02 70.43 69.84 69.14 68.77 68.06 67.76 67.69 67.54 67.99 68.24 67.99 69.60 69.32 69.41 70.42 70.55 70.46 71.41
69.15 70.20 70.81 71.02 71.92 71.99 72.18 72.51 72.59 72.66 72.56 72.41 72.03 71.36 71.05 70.48 69.71 69.32 69.27 70.38 70.87 70.13 70.53 70.21 69.99 69.47 68.84 67.59 67.04 66.71 66.73 67.16 66.81 67.10 66.79 63.96 65.27 68.94 67.52 68.83 69.27 70.84 71.26
69.75 69.97 70.21 70.79 71.40 71.84 71.77 71.96 72.11 72.16 72.27 72.11 71.56 70.69 70.17 69.66 69.36 69.19 69.58 70.04 69.95 69.40 70.19 69.84 68.93 68.05 67.22 66.64 66.25 66.28 66.28 66.59 66.76 66.73 61.29 65.51 66.27 69.15 67.94 69.28 69.47 68.55 69.68
68.28 68.99 69.54 69.74 70.48 71.30 71.36 71.49 71.57 71.68 71.43 71.42 71.02 70.54 69.96 69.29 69.61 69.33 68.64 69.22 68.94 69.81 69.69 69.24 68.29 67.17 66.01 65.67 65.90 65.96 65.95 65.96 66.01 62.89 60.45 62.36 65.16 68.69 67.68 68.56 68.79 69.09 68.57
65.15 66.51 67.47 68.53 69.60 70.60 70.84 70.88 70.91 70.68 70.35 70.28 70.44 70.22 69.65 69.29 68.78 68.15 67.94 67.44 67.38 67.25 67.66 66.96 66.33 65.67 65.51 65.68 65.44 65.23 65.30 65.10 64.33 60.04 60.67 65.09 65.41 67.63 67.69 68.43 68.32 68.03 67.79
63.10 64.19 65.51 67.00 68.55 69.77 70.08 70.03 69.91 69.84 69.76 69.84 69.83 69.63 68.84 68.45 68.00 67.58 67.18 66.86 66.57 66.43 66.28 66.20 65.87 65.42 64.95 65.04 64.77 64.73 64.33 64.01 61.94 59.69 61.98 63.62 64.67 67.97 68.18 67.85 67.75 67.43 67.68
62.50 63.59 64.84 67.21 67.50 67.72 68.19 68.14 67.90 68.04 68.11 68.26 68.50 68.65 68.01 67.89 67.63 67.13 66.94 66.70 66.48 66.10 65.57 65.17 64.52 64.07 63.83 63.79 63.78 63.61 62.84 63.24 60.48 58.12 60.13 62.71 65.90 67.16 66.73 67.46 67.61 67.28 66.85
61.86 62.78 63.36 64.49 65.76 66.16 65.99 65.99 65.90 66.43 66.67 66.74 66.85 67.05 66.88 66.73 66.77 67.01 66.80 66.17 65.86 65.31 65.04 64.20 63.45 63.60 63.13 63.07 63.01 62.54 61.93 62.23 57.20 55.92 60.92 61.05 66.36 66.99 66.35 66.58 65.43 66.47 66.61
60.16 61.49 61.47 62.45 63.16 62.90 63.24 65.00 64.91 64.91 65.11 65.41 65.43 65.32 65.26 65.37 65.61 66.06 65.90 66.30 65.60 65.06 64.31 63.97 63.74 62.90 62.56 62.04 61.81 61.67 61.58 61.53 55.69 54.90 58.98 60.00 65.88 66.20 66.16 65.34 64.69 64.65 65.31
59.62 59.46 60.57 61.37 61.88 61.89 62.40 64.16 64.87 65.19 64.86 64.60 64.75 64.71 63.49 63.53 64.06 64.38 64.20 65.03 65.35 64.89 64.25 63.74 63.17 62.38 61.70 61.27 61.38 61.23 62.12 57.34 55.86 55.37 57.67 61.60 65.19 65.70 65.60 65.21 64.64 64.28 64.88
58.37 59.74 60.16 60.60 60.76 61.48 63.85 63.06 62.68 63.59 62.84 62.57 62.60 62.63 62.51 61.83 62.35 64.14 63.54 64.07 64.36 63.70 63.48 63.37 63.32 62.89 61.93 58.18 56.69 59.25 57.03 56.70 55.58 54.25 55.79 61.60 64.07 64.53 63.94 63.41 63.78 64.11 64.52
59.81 60.94 60.71 61.63 61.71 61.04 61.32 61.38 61.09 62.02 62.04 61.87 61.96 61.55 61.56 62.72 61.74 62.56 60.26 60.74 59.57 61.89 60.26 60.90 60.47 59.66 58.97 57.40 56.64 55.94 56.44 55.73 53.82 53.81 55.51 61.34 62.67 62.89 62.81 62.40 62.53 63.15 63.62
59.85 60.93 61.57 60.96 61.59 60.06 60.41 60.86 61.44 61.39 61.80 62.00 62.27 61.71 59.76 59.40 58.58 59.44 59.64 59.14 58.93 59.13 58.95 58.67 58.59 58.65 57.60 57.45 56.82 56.44 56.18 55.23 54.12 53.56 53.88 60.04 61.22 61.90 62.04 61.74 61.72 62.13 62.86
60.24 61.59 61.22 60.44 59.64 58.05 58.52 58.52 59.29 59.72 61.00 61.72 61.57 60.78 58.67 58.27 56.92 56.79 56.21 56.07 55.43 54.62 54.66 53.88 54.42 53.92 53.59 54.14 54.49 54.82 55.28 55.06 54.23 53.21 51.94 56.95 59.48 60.52 60.87 60.79 60.82 61.10 61.90
60.96 60.84 60.84 60.02 59.36 57.74 58.10 58.09 57.48 59.65 59.34 58.91 60.42 59.83 58.93 58.42 56.61 56.30 55.03 55.55 54.77 54.25 54.31 53.89 53.61 53.52 53.75 54.03 54.33 54.91 54.74 53.97 53.42 52.79 51.58 51.54 57.14 58.84 59.90 59.93 60.32 60.43 60.89
61.06 61.38 60.91 59.52 58.32 58.29 58.33 58.43 58.15 59.16 57.84 58.77 58.55 58.50 58.82 57.65 56.72 55.42 54.66 54.73 54.61 55.14 54.31 53.77 53.49 53.45 53.16 53.82 53.03 53.57 53.80 53.92 53.41 52.41 51.83 50.71 51.48 56.96 57.93 59.65 60.86 60.53 60.33
60.92 60.62 60.89 62.14 59.38 59.95 59.46 57.95 56.98 57.07 55.57 55.66 57.10 56.28 57.00 57.27 56.12 54.78 54.10 53.23 53.56 53.53 53.18 52.40 52.22 51.81 51.45 51.47 51.27 52.02 52.24 52.59 52.47 52.01 51.45 50.49 49.87 51.59 54.35 57.74 59.31 60.29 61.23
58.94 59.91 60.86 60.83 60.13 60.52 60.21 58.66 56.47 55.57 54.35 54.35 54.41 55.07 55.64 55.85 55.72 53.24 52.58 52.04 52.41 51.24 50.78 50.48 49.56 49.89 49.15 48.79 49.85 50.18 50.86 51.17 51.45 53.50 51.67 50.83 49.65 50.68 51.65 54.18 57.24 58.08 59.69
55.07 56.60 57.29 57.35 59.22 59.92 58.68 56.94 54.19 53.55 52.34 53.07 52.92 53.32 54.92 55.34 54.14 51.85 51.08 50.54 50.09 49.44 48.67 47.89 47.43 47.61 47.49 47.01 49.34 48.83 48.94 49.82 50.41 50.05 50.58 52.04 50.63 49.85 49.86 50.19 51.30 54.68 57.18
54.56 54.18 54.38 54.80 54.84 54.58 53.53 52.39 51.58 50.99 50.60 51.46 53.13 54.38 53.91 53.17 51.81 49.50 48.66 48.24 47.99 47.52 46.88 47.25 46.80 45.35 44.99 46.44 44.98 45.60 45.82 47.20 47.14 47.23 48.03 48.68 49.55 50.84 50.97 51.01 48.42 50.84 53.13
52.89 53.48 51.92 51.52 51.47 51.65 51.18 50.42 51.42 50.94 50.53 50.47 51.42 50.31 50.25 48.82 48.56 47.63 46.09 46.24 45.99 46.04 45.21 44.80 44.47 44.11 44.78 44.88 42.98 42.73 40.71 43.43 43.79 44.75 45.95 46.50 45.81 47.16 46.28 47.11 48.87 50.53 50.38
49.45 49.89 51.20 50.76 50.98 50.99 51.21 50.75 50.12 50.16 49.17 47.87 47.58 46.86 47.61 47.91 47.19 45.87 45.28 45.00 45.11 45.21 44.25 43.96 43.62 42.74 42.22 42.86 42.33 42.21 38.49 36.68 38.10 41.43 41.64 42.69 41.82 42.50 42.52 44.26 45.83 47.38 50.20
48.86 49.81 50.12 50.56 50.74 51.27 50.66 49.64 48.26 47.29 46.04 46.49 45.93 45.94 46.05 46.54 45.81 45.79 45.30 45.26 45.04 44.82 43.29 43.50 44.45 42.36 43.95 42.41 42.43 42.72 41.21 41.15 34.03 33.73 37.90 39.21 39.21 40.14 40.15 41.59 41.86 45.44 49.06
49.85 49.37 49.28 50.12 50.12 49.76 49.29 48.70 47.81 47.01 47.44 47.70 47.17 46.34 45.77 45.24 45.10 45.96 45.72 44.31 43.41 43.46 42.73 41.62 41.23 40.89 41.15 39.72 38.62 37.53 37.05 36.51 35.99 33.12 31.37 34.41 37.15 38.11 38.68 38.52 40.13 43.36 46.12
49.19 48.54 48.31 48.12 48.16 48.63 48.65 47.84 47.09 46.42 46.05 45.34 45.19 44.52 44.23 43.71 43.93 44.13 43.97 42.82 42.24 41.51 40.92 40.76 40.08 39.70 38.74 38.51 38.02 36.48 36.81 35.39 35.56 35.43 33.96 33.92 33.31 35.09 36.91 37.76 38.64 41.01 42.85
MSLP
1018.19 1017.93 1017.65 1017.68 1017.75 1017.73 1017.86 1018.00 1018.25 1018.53 1018.75 1018.79 1018.91 1019.02 1019.17 1019.30 1019.48 1019.53 1019.59 1019.47 1019.38 1019.35 1019.33 1019.35 1019.43 1019.55 1019.56 1019.59 1019.49 1019.76 1019.72 1019.71 1019.65 1019.48 1019.38 1019.28 1018.92 1018.80 1018.87 1018.65 1018.87 1018.89 1018.88
1017.71 1018.06 1017.79 1017.86 1017.87 1017.93 1018.15 1018.35 1018.52 1018.64 1018.86 1019.02 1019.19 1019.41 1019.55 1019.70 1019.76 1019.82 1019.84 1019.88 1019.71 1019.67 1019.62 1019.64 1019.74 1019.84 1019.96 1019.78 1019.81 1019.86 1019.82 1019.90 1019.79 1019.86 1019.44 1019.51 1019.20 1019.04 1019.00 1019.14 1019.17 1019.01 1018.96
1017.76 1018.03 1018.07 1018.14 1018.23 1018.28 1018.36 1018.50 1018.62 1018.94 1019.15 1019.29 1019.42 1019.50 1019.68 1019.83 1019.94 1020.02 1020.10 1020.06 1019.96 1019.92 1019.82 1020.03 1019.92 1020.11 1020.13 1020.23 1020.15 1020.06 1020.01 1019.89 1019.94 1019.64 1019.48 1019.54 1019.39 1019.16 1019.31 1019.26 1019.29 1019.14 1019.06
1017.75 1018.11 1018.29 1018.39 1018.47 1018.55 1018.69 1018.90 1018.90 1019.03 1019.15 1019.35 1019.64 1019.80 1020.04 1020.19 1020.18 1020.05 1020.08 1020.06 1020.01 1020.04 1020.15 1020.19 1020.24 1020.38 1020.33 1020.40 1020.39 1020.37 1020.40 1020.26 1020.14 1019.92 1019.51 1019.49 1019.44 1019.44 1019.55 1019.48 1019.59 1019.37 1019.34
1018.00 1018.35 1018.47 1018.59 1018.73 1018.89 1018.96 1019.12 1019.22 1019.30 1019.53 1019.75 1019.83 1019.99 1020.06 1020.15 1020.01 1020.19 1020.36 1020.30 1020.29 1020.35 1020.34 1020.42 1020.55 1020.63 1020.74 1020.54 1020.54 1020.50 1020.31 1020.29 1020.29 1020.09 1019.81 1019.46 1019.53 1019.32 1019.23 1019.06 1019.26 1018.93 1019.22
1018.45 1018.60 1018.82 1018.93 1019.01 1019.10 1019.15 1019.33 1019.40 1019.61 1019.84 1019.89 1020.13 1020.15 1020.23 1020.34 1020.29 1020.42 1020.44 1020.29 1020.47 1020.56 1020.62 1020.61 1020.73 1020.72 1020.71 1020.63 1020.52 1020.42 1020.26 1020.32 1020.29 1020.19 1019.83 1019.45 1019.45 1019.47 1019.51 1019.52 1019.53 1019.50 1019.53
1018.94 1018.98 1019.00 1019.07 1019.09 1019.26 1019.35 1019.48 1019.65 1019.87 1020.01 1020.14 1020.25 1020.43 1020.55 1020.36 1020.29 1020.52 1020.48 1020.38 1020.49 1020.71 1020.67 1020.54 1020.65 1020.76 1020.65 1020.73 1020.60 1020.49 1020.40 1020.43 1020.35 1020.23 1019.79 1019.71 1019.65 1019.33 1019.26 1019.38 1019.24 1019.35 1019.36
1018.84 1019.13 1019.17 1019.25 1019.24 1019.32 1019.48 1019.64 1019.83 1020.08 1020.21 1020.45 1020.58 1020.63 1020.54 1020.30 1020.38 1020.50 1020.34 1020.49 1020.53 1020.69 1020.61 1020.57 1020.63 1020.71 1020.72 1020.79 1020.62 1020.51 1020.49 1020.50 1020.44 1020.33 1020.05 1019.85 1019.69 1019.46 1019.45 1019.47 1019.19 1019.03 1018.95
1019.01 1019.29 1019.26 1019.41 1019.41 1019.51 1019.62 1019.87 1019.99 1020.24 1020.39 1020.54 1020.76 1020.61 1020.57 1020.35 1020.40 1020.48 1020.39 1020.64 1020.62 1020.57 1020.73 1020.74 1020.68 1020.71 1020.82 1020.81 1020.72 1020.51 1020.48 1020.50 1020.56 1020.31 1019.93 1020.07 1019.83 1019.68 1019.63 1019.59 1019.59 1019.52 1019.17
1019.20 1019.23 1019.41 1019.49 1019.52 1019.64 1019.82 1019.78 1020.06 1020.11 1020.36 1020.53 1020.78 1020.54 1020.42 1020.46 1020.48 1020.70 1020.66 1020.96 1020.95 1020.88 1020.78 1020.83 1020.75 1020.78 1020.81 1020.78 1020.65 1020.50 1020.47 1020.46 1020.58 1020.45 1020.16 1020.02 1019.77 1019.63 1019.61 1019.53 1019.56 1019.60 1019.63
1019.55 1019.60 1019.47 1019.47 1019.55 1019.65 1019.92 1019.89 1020.18 1020.31 1020.30 1020.37 1020.47 1020.33 1020.06 1020.36 1020.47 1020.90 1020.80 1020.90 1020.83 1020.95 1020.91 1020.82 1020.79 1020.84 1020.81 1020.76 1020.65 1020.41 1020.39 1020.52 1020.49 1020.40 1020.31 1020.15 1019.91 1019.69 1019.62 1019.53 1019.45 1019.46 1019.47
1019.15 1019.33 1019.14 1019.34 1019.49 1019.78 1019.86 1020.24 1020.50 1020.44 1020.70 1020.54 1020.57 1020.68 1020.78 1020.55 1020.55 1020.94 1020.99 1020.91 1020.83 1020.86 1020.72 1020.66 1020.60 1020.71 1020.76 1020.79 1020.69 1020.39 1020.28 1020.31 1020.43 1020.35 1020.18 1020.00 1020.03 1019.91 1019.74 1019.73 1019.53 1019.37 1019.28
1018.15 1018.69 1019.00 1019.16 1019.39 1019.48 1020.07 1020.43 1020.71 1020.79 1020.87 1020.77 1020.61 1020.59 1020.51 1020.71 1020.72 1020.84 1021.15 1021.00 1020.96 1020.80 1020.78 1020.71 1020.62 1020.62 1020.61 1020.58 1020.47 1020.41 1020.20 1020.15 1020.28 1020.14 1019.99 1019.77 1019.73 1019.60 1019.50 1019.52 1019.47 1019.36 1019.23
1017.89 1018.01 1018.54 1018.76 1019.35 1019.21 1019.78 1020.29 1020.53 1020.71 1020.83 1020.88 1020.74 1020.52 1020.58 1020.74 1020.81 1020.91 1021.13 1020.99 1020.92 1020.77 1020.74 1020.71 1020.62 1020.44 1020.38 1020.21 1020.09 1019.97 1019.78 1019.82 1019.90 1019.74 1019.62 1019.48 1019.44 1019.33 1019.18 1019.10 1019.06 1019.04 1018.99
1017.64 1017.94 1018.08 1018.15 1018.58 1019.02 1019.46 1019.83 1020.02 1020.12 1020.52 1020.45 1020.13 1020.35 1020.35 1020.41 1020.85 1020.96 1020.95 1020.93 1020.81 1020.73 1020.69 1020.71 1020.63 1020.50 1020.32 1019.99 1019.75 1019.67 1019.53 1019.38 1019.29 1019.29 1019.18 1019.06 1019.06 1019.08 1018.93 1018.77 1018.60 1018.52 1018.51
1017.06 1017.60 1017.73 1017.81 1017.92 1018.19 1018.74 1019.05 1019.70 1019.59 1019.83 1020.10 1019.99 1019.94 1020.20 1020.29 1020.54 1020.70 1020.80 1020.90 1020.75 1020.69 1020.57 1020.55 1020.49 1020.43 1020.27 1020.11 1019.82 1019.58 1019.34 1019.11 1018.97 1018.88 1018.75 1018.55 1018.40 1018.39 1018.33 1018.29 1018.15 1018.03 1018.00
1016.37 1016.98 1017.19 1017.94 1018.36 1018.51 1018.60 1018.88 1019.36 1019.37 1019.62 1019.80 1019.80 1019.85 1019.99 1020.08 1020.33 1020.59 1020.84 1020.70 1020.67 1020.79 1020.79 1020.71 1020.60 1020.56 1020.52 1020.26 1020.22 1019.76 1019.48 1019.14 1018.98 1018.84 1018.69 1018.58 1018.11 1017.75 1017.72 1017.66 1017.68 1017.57 1017.52
1016.51 1016.99 1018.21 1018.54 1018.47 1018.76 1018.67 1019.28 1019.40 1019.51 1019.67 1019.71 1019.78 1020.00 1020.20 1020.27 1020.33 1020.58 1020.74 1021.00 1020.98 1020.86 1020.89 1020.87 1020.90 1020.83 1020.72 1020.56 1020.32 1019.83 1019.49 1019.17 1018.90 1018.56 1018.32 1018.12 1018.00 1017.83 1017.55 1017.28 1017.06 1017.00 1017.01
1017.46 1018.09 1018.62 1018.66 1018.95 1019.44 1019.63 1019.65 1019.90 1020.00 1020.18 1020.18 1020.20 1020.45 1020.59 1020.50 1020.57 1020.87 1021.14 1021.24 1021.05 1020.94 1020.97 1021.08 1021.06 1021.17 1021.06 1020.71 1020.36 1019.97 1019.58 1019.24 1018.77 1018.39 1018.28 1017.98 1017.69 1017.51 1017.27 1016.98 1016.74 1016.48 1016.40
1018.50 1019.07 1019.52 1019.84 1020.17 1020.24 1020.57 1020.60 1020.58 1020.59 1020.53 1020.52 1020.71 1020.99 1020.92 1021.00 1021.16 1021.33 1021.49 1021.47 1021.27 1021.14 1021.26 1021.41 1021.46 1021.33 1021.18 1020.87 1020.41 1019.87 1019.57 1019.14 1018.69 1018.57 1018.37 1018.05 1017.84 1017.55 1017.36 1017.06 1016.71 1016.43 1016.04
1019.59 1019.80 1020.56 1020.83 1020.96 1021.01 1021.36 1021.43 1021.32 1021.69 1021.65 1021.52 1021.51 1021.59 1021.59 1021.68 1021.80 1021.96 1022.07 1021.95 1021.71 1021.81 1022.04 1021.88 1021.65 1021.60 1021.25 1020.88 1020.51 1020.04 1019.50 1018.91 1018.83 1018.90 1018.79 1018.64 1018.30 1018.03 1017.76 1017.59 1017.17 1016.69 1016.27
1020.61 1020.70 1020.78 1020.91 1021.02 1021.28 1021.33 1021.50 1021.56 1021.72 1022.05 1022.13 1022.16 1022.26 1022.24 1022.26 1022.31 1022.34 1022.36 1022.26 1022.26 1022.28 1022.20 1022.08 1021.99 1022.02 1021.80 1021.53 1021.36 1020.89 1019.74 1019.23 1019.30 1019.28 1018.99 1018.99 1019.06 1018.83 1018.47 1018.09 1017.68 1017.22 1016.63
1020.99 1021.06 1020.96 1021.12 1021.27 1021.35 1021.24 1021.20 1021.45 1021.68 1022.06 1022.48 1022.69 1022.84 1022.76 1022.50 1022.45 1022.44 1022.50 1022.53 1022.51 1022.40 1022.41 1022.36 1022.28 1022.23 1022.22 1021.96 1021.79 1021.65 1021.19 1020.64 1020.23 1019.40 1019.23 1019.31 1019.32 1019.24 1019.09 1018.65 1017.97 1017.46 1017.00
1020.83 1020.72 1020.77 1021.01 1021.21 1021.29 1021.30 1021.45 1021.88 1022.44 1022.87 1023.06 1023.00 1023.04 1022.91 1022.67 1022.63 1022.56 1022.58 1022.59 1022.67 1022.75 1022.79 1022.60 1022.36 1022.38 1022.36 1022.37 1022.15 1021.96 1021.77 1021.61 1021.31 1019.77 1019.69 1019.71 1019.73 1019.48 1019.31 1018.94 1018.54 1017.85 1017.19
1020.63 1020.86 1020.98 1020.93 1021.18 1021.37 1021.56 1021.92 1022.28 1022.65 1022.68 1022.76 1022.89 1022.90 1022.82 1022.65 1022.68 1022.63 1022.63 1022.68 1022.83 1022.94 1022.95 1022.86 1022.71 1022.60 1022.49 1022.52 1022.53 1022.66 1022.24 1021.83 1021.61 1021.67 1020.36 1020.17 1020.31 1019.98 1019.65 1019.20 1018.71 1018.16 1017.56
1021.07 1021.17 1021.27 1021.32 1021.61 1021.67 1021.73 1021.99 1022.31 1022.74 1022.84 1022.93 1022.92 1022.98 1022.91 1022.94 1023.02 1022.96 1022.88 1022.93 1023.04 1023.14 1023.18 1023.09 1022.86 1022.81 1022.64 1022.55 1022.59 1022.85 1022.69 1022.35 1022.02 1021.89 1021.49 1020.77 1020.74 1020.30 1019.94 1019.15 1018.76 1018.31 1017.80
Wind_Speed
3 4 11 12 11 12 13 13 12 12 12 13 12 13 13 13 12 12 12 12 12 12 12 12 12 11 11 9 10 9 9 8 8 9 8 7 6 7 10 10 6 4 4
9 6 11 12 13 13 13 13 13 12 13 13 13 13 12 12 12 12 13 11 11 12 12 12 11 10 9 9 9 8 7 6 7 6 7 6 4 5 6 7 6 4 5
10 8 10 12 13 13 14 14 14 14 14 14 14 13 12 12 12 12 12 10 9 10 10 9 10 9 8 8 8 9 10 10 9 9 7 1 3 4 1 3 2 6 5
11 8 9 12 12 13 13 13 14 15 15 14 13 14 13 12 11 11 11 10 8 7 9 9 9 9 8 7 7 6 7 8 10 10 6 2 6 7 6 4 1 2 2
10 7 9 11 12 13 13 13 13 14 13 12 12 12 12 11 12 11 10 10 10 10 9 9 9 8 7 7 7 7 7 8 9 5 6 3 2 5 4 4 4 3 1
7 7 9 11 12 13 13 13 13 13 12 12 11 11 11 11 12 11 11 11 11 10 9 9 9 8 8 8 8 9 9 10 8 6 5 3 4 4 4 4 2 5 4
7 6 7 11 12 12 14 13 12 11 11 11 11 10 11 12 12 11 10 10 9 8 8 8 8 7 6 6 7 8 8 9 6 6 6 2 3 7 8 8 6 4 3
11 6 7 10 12 12 12 11 11 10 10 10 10 10 11 11 11 10 9 8 8 6 6 5 4 2 3 5 6 8 10 10 7 5 5 1 4 1 3 5 4 3 5
8 7 6 6 8 11 11 10 10 9 10 9 9 9 9 9 9 9 8 7 7 6 4 2 0 2 3 5 7 8 8 7 4 4 1 1 4 2 3 4 3 3 3
7 7 7 6 6 6 6 10 10 10 9 10 9 10 9 8 7 7 7 5 4 3 3 3 4 4 5 7 8 10 8 8 3 4 3 3 7 7 5 3 2 1 3
5 5 6 7 6 6 5 6 8 10 11 10 9 9 7 4 5 5 5 7 6 4 4 6 6 6 6 8 9 9 7 2 4 3 2 6 8 9 7 5 4 2 3
9 9 8 7 7 6 6 4 5 5 4 4 4 4 3 4 2 3 5 8 5 6 6 8 8 8 7 4 4 6 2 3 2 3 3 9 9 10 8 7 5 5 5
15 9 10 9 7 7 3 4 2 2 2 2 4 5 4 3 3 3 2 3 2 5 3 4 5 3 5 4 4 4 4 3 3 3 3 8 9 9 10 9 8 7 7
12 11 10 8 7 6 4 4 4 3 3 3 5 5 4 3 3 3 3 4 3 3 4 4 3 4 5 6 6 6 5 4 3 3 4 9 10 11 12 11 10 10 9
12 12 11 11 10 7 7 4 4 5 4 5 5 6 4 4 3 3 2 2 2 1 2 2 2 3 5 6 6 5 6 6 6 4 3 10 12 13 13 13 12 12 11
12 12 10 9 8 8 7 7 5 4 5 4 4 5 5 4 4 2 2 2 2 2 2 2 3 4 5 5 6 6 7 6 6 6 4 5 12 14 14 15 15 13 13
16 14 13 8 6 6 5 4 3 4 4 4 4 5 6 5 4 4 2 2 1 3 5 5 5 4 5 5 6 6 5 7 6 6 6 5 6 12 14 15 15 14 14
12 11 8 7 6 7 4 2 1 2 3 2 4 1 2 3 4 3 1 3 3 4 4 4 3 4 4 4 4 6 5 5 6 7 5 5 5 6 9 16 17 16 15
10 9 10 9 6 4 2 4 3 5 4 2 2 3 2 3 4 4 3 2 3 3 4 3 3 2 3 4 6 5 5 5 6 5 6 7 6 6 7 12 18 17 17
14 14 12 8 6 5 3 4 4 4 5 4 5 4 5 5 6 5 4 5 5 4 5 4 3 3 2 4 6 7 5 5 4 4 6 6 6 6 6 8 8 10 17
11 12 11 9 5 3 2 2 4 3 3 5 6 9 8 8 8 7 4 5 5 5 4 3 3 4 4 4 3 6 3 6 5 5 5 5 9 9 10 9 5 5 7
7 7 7 8 7 5 3 2 3 3 4 4 4 6 7 7 6 7 6 6 6 4 6 5 4 3 2 5 2 3 5 6 4 9 7 6 6 6 9 11 11 11 8
7 5 6 6 7 4 5 3 3 3 2 2 3 3 4 6 6 6 6 5 4 3 4 4 4 5 2 2 4 1 4 3 7 1 10 2 5 5 5 8 10 11 9
4 7 7 5 6 7 8 6 5 3 3 2 2 1 3 5 5 5 5 5 5 3 4 3 3 2 1 2 2 3 1 1 4 9 3 8 6 9 7 6 7 7 8
6 7 7 8 8 7 7 6 5 3 1 0 2 3 3 3 5 5 5 5 5 3 3 3 3 2 1 1 0 2 2 2 0 1 9 4 6 4 5 5 6 5 7
3 5 6 8 5 6 7 7 7 5 3 2 1 1 2 2 3 4 5 5 4 4 3 3 3 3 3 1 0 1 2 3 3 2 6 10 10 5 7 6 4 4 4
Wind_Direction
158 147 113 99 94 87 91 101 102 104 106 103 98 92 87 85 84 83 85 84 84 79 73 67 70 63 55 48 48 44 44 33 32 20 18 15 53 55 25 95 108 123 109
133 137 108 103 94 90 91 103 108 108 109 106 97 94 91 87 84 77 67 64 68 73 71 64 64 61 56 48 33 27 30 23 26 23 354 349 23 63 58 77 112 143 155
121 116 100 98 98 99 101 102 104 105 103 101 102 102 97 88 80 75 71 64 63 69 72 65 59 54 53 45 31 18 6 2 8 4 343 145 285 102 354 110 138 127 148
111 104 108 104 104 98 93 95 99 103 103 104 102 97 92 88 81 75 70 67 60 71 70 63 62 52 46 39 29 16 0 353 5 353 339 87 185 160 137 142 133 79 56
102 106 110 109 105 103 100 97 98 97 98 101 103 107 102 97 90 82 74 66 62 62 63 60 54 52 34 25 14 3 359 359 7 4 329 318 252 148 157 150 164 117 57
99 108 112 108 109 109 105 104 103 104 107 104 104 102 100 97 91 83 77 71 64 62 60 57 45 40 32 18 6 359 357 3 11 346 331 249 205 153 186 165 186 155 183
112 112 114 118 114 113 115 115 111 110 108 109 109 111 112 108 102 98 96 92 89 84 78 68 58 43 35 12 356 346 347 359 8 346 351 188 253 209 174 171 183 247 230
127 127 125 126 123 118 114 113 114 118 117 115 119 125 122 119 119 127 121 118 116 117 106 97 87 56 21 350 339 341 347 0 355 336 324 294 272 217 116 161 164 241 262
126 135 140 140 132 125 124 126 125 124 128 134 141 131 131 134 146 145 136 142 149 141 119 123 202 279 330 329 324 324 332 350 354 317 277 245 266 203 159 135 137 181 276
158 159 151 145 138 139 147 142 145 151 155 156 155 144 151 156 163 163 148 168 168 162 183 227 259 296 312 309 307 311 319 334 357 311 272 221 227 218 211 188 179 220 282
160 165 164 157 160 156 158 161 162 177 173 171 172 170 159 173 182 181 184 196 187 195 229 256 272 284 297 299 297 301 324 321 331 331 270 257 244 242 241 217 204 236 279
175 185 179 168 167 163 164 157 179 190 195 184 181 175 199 209 195 189 227 226 209 217 241 262 269 280 293 287 292 307 282 289 300 303 276 258 257 271 273 265 247 244 264
180 174 184 171 174 163 161 154 196 211 227 209 218 206 193 218 223 199 230 247 250 251 259 274 290 273 270 264 271 274 277 277 260 267 261 239 239 257 271 272 266 261 265
175 175 173 160 171 177 164 173 187 195 207 226 231 220 162 157 148 189 205 220 232 247 265 261 272 273 270 262 259 267 262 252 250 258 256 228 235 247 258 266 272 269 264
169 166 169 158 156 140 144 166 174 197 207 221 196 193 154 129 145 166 196 212 253 299 265 289 270 273 277 292 291 278 277 271 256 241 242 236 229 241 255 264 268 273 269
168 171 174 171 160 147 151 162 174 161 177 188 188 178 169 148 157 155 77 356 344 325 290 264 277 308 305 303 293 288 282 274 262 256 249 251 235 230 233 245 252 257 265
179 173 182 134 100 104 141 177 168 185 157 173 181 185 172 171 162 137 159 211 302 347 347 347 342 336 330 327 304 303 293 292 294 282 275 273 272 240 234 233 240 242 246
168 177 86 113 120 111 199 70 289 177 163 177 199 148 212 163 150 155 159 26 358 5 11 19 11 354 349 336 317 306 306 302 295 291 282 265 252 260 254 244 237 234 231
78 85 99 111 107 112 347 13 17 27 12 72 69 98 104 98 90 72 50 21 21 27 27 18 354 37 324 329 324 319 305 302 295 307 297 289 259 248 251 254 245 234 228
70 78 67 59 45 36 11 13 26 42 32 41 49 38 31 47 45 46 27 19 16 22 13 8 10 341 311 303 320 308 297 285 283 297 306 317 322 293 271 266 266 251 233
62 71 83 77 44 61 36 16 17 20 17 30 48 44 40 40 45 46 41 34 26 41 7 5 353 342 317 343 334 322 302 280 332 6 357 344 358 1 9 356 301 280 277
71 78 78 84 75 72 83 95 87 88 84 69 59 44 51 58 51 60 48 34 31 20 6 3 12 331 323 13 343 286 325 315 19 340 347 351 11 18 10 0 358 357 308
82 92 92 105 115 106 90 85 63 72 56 58 48 54 30 58 57 58 51 46 30 37 29 34 32 42 354 331 33 75 332 309 324 338 326 0 9 359 353 347 344 335 334
93 80 71 77 59 45 38 53 64 81 35 353 32 96 65 64 68 68 73 73 68 56 40 3 35 41 342 345 309 17 266 312 308 315 11 329 350 340 341 332 321 315 331
119 102 89 73 68 71 76 83 85 76 123 62 48 55 32 44 46 63 75 73 60 45 25 11 356 30 55 116 101 317 321 295 98 306 309 325 322 315 309 308 305 318 334
70 76 99 109 104 85 88 90 98 90 78 53 5 13 327 40 49 51 68 71 66 48 21 351 346 338 340 344 70 174 310 309 318 289 301 313 316 313 315 299 313 328 331